Location: Unspecified
(45.1160°N, 0.0000°E)
Time: 06:11:00
(UTC+00:00)

NOAA 12 DEB - Visible Passes

Search period start: 05 April 2026 00:00
Search period end: 15 April 2026 00:00
Orbit: 786 x 792 km, 98.5° (Epoch: 28 March)

Date Brightness Start Highest point End Pass type
(mag) Time Alt. Az. Time Alt. Az. Time Alt. Az.
5 Apr ? 03:30:31 10° ENE 03:32:52 13° E 03:35:13 10° ESE visible
6 Apr ? 04:37:56 10° NNE 04:43:02 53° E 04:48:06 10° S visible
7 Apr ? 04:08:26 10° NE 04:12:58 29° E 04:17:26 10° SSE visible
8 Apr ? 03:39:34 10° NE 03:42:44 16° E 03:45:53 10° SE visible
9 Apr ? 04:47:36 10° NNE 04:52:48 65° ESE 04:57:56 10° S visible
10 Apr ? 04:17:58 10° NNE 04:22:45 35° E 04:27:28 10° SSE visible
11 Apr ? 03:48:50 10° NE 03:52:34 20° E 03:56:17 10° SE visible
12 Apr ? 03:21:52 10° E 03:22:15 10° E 03:22:37 10° E visible
13 Apr ? 04:27:34 10° NNE 04:32:31 43° E 04:37:26 10° S visible
14 Apr ? 03:58:13 10° NE 04:02:23 24° E 04:06:31 10° SSE visible
